Location: Krakow
(50.0830°N, 19.9170°E)
Time: 10:41:37
(UTC+02:00)

Tiangong - Visible Passes

Search period start: 03 October 2023 00:00
Search period end: 13 October 2023 00:00
Orbit: 371 x 384 km, 41.5° (Epoch: 02 October)

Date Brightness Start Highest point End Pass type
(mag) Time Alt. Az. Time Alt. Az. Time Alt. Az.
03 Oct 0.1 20:10:05 10° SW 20:11:32 16° SSW 20:11:32 16° SSW visible
04 Oct 0.0 19:08:20 10° SW 19:10:25 16° S 19:12:21 11° SE visible
05 Oct -0.1 19:42:23 10° SW 19:44:29 17° S 19:45:07 16° S visible
06 Oct 0.1 18:40:18 10° SW 18:42:28 17° S 18:44:37 10° SE visible
06 Oct 0.6 20:17:00 10° SW 20:17:47 12° SSW 20:17:47 12° SSW visible
07 Oct 0.3 19:14:24 10° SW 19:16:19 15° S 19:18:14 10° SSE visible
09 Oct 0.5 18:46:11 10° SW 18:47:45 13° SSW 18:49:18 10° SSE visible
